Weather History for Montgomery, NY

Change the Weather History Date:

Friday, February 15, 2013

  Actual Average (KPOU) Record (KPOU)
Temperature  
Mean Temperature 39 °F 28 °F  
Max Temperature 50 °F 39 °F 66 °F (1954)
Min Temperature 28 °F 18 °F -4 °F (1958)
Degree Days  
Heating Degree Days 26 36  
Month to date heating degree days 565  
Since 1 July heating degree days 4117  
Cooling Degree Days 0 0  
Month to date cooling degree days 0  
Year to date cooling degree days 0  
Moisture  
Dew Point 26 °F    
Average Humidity 62    
Maximum Humidity 89    
Minimum Humidity 36    
Precipitation  
Precipitation 0.04 in 0.09 in 0.72 in (1953)
Month to date precipitation 1.39  
Year to date precipitation 4.47  
Sea Level Pressure  
Sea Level Pressure 29.94 in    
Wind  
Wind Speed 5 mph (SW)    
Max Wind Speed 13 mph    
Max Gust Speed -    
Visibility 9 miles    
Events Rain , Snow    
T = Trace of Precipitation, MM = Missing Value Source: NWS Daily Summary

Daily Weather History Graph

Daily Weather History Graph

Search for Another Location

Airport:

Trip Planner

Search our weather history database for the weather conditions in past years. The results will help you decide how hot, cold, wet, or windy it might be!

Date:

Astronomy

Feb. 15, 2013 Rise Set
Actual Time 6:51 AM EST 5:31 PM EST
Civil Twilight 6:23 AM EST 5:59 PM EST
Nautical Twilight 5:51 AM EST 6:31 PM EST
Astronomical Twilight 5:18 AM EST 7:04 PM EST
Moon 9:21 AM EST (2/15) 11:34 PM EST (2/15)
Length of Visible Light 11h 35m
Length of Day
10h 39m
Waxing Crescent, 30% of the Moon is Illuminated
Feb 15
Waxing Crescent
Feb 17
First Quarter
Feb 25
Full
Mar 4
Last Quarter
Mar 11
New

Hourly Weather History & Observations

Time (EST) Temp. Windchill Dew Point Humidity Pressure Visibility Wind Dir Wind Speed Gust Speed Precip Events Conditions
12:54 AM 28.9 °F - 24.1 °F 82% 29.96 in 10.0 mi Calm Calm - N/A   Overcast
1:54 AM 30.9 °F - 25.0 °F 79% 29.96 in 10.0 mi Calm Calm - N/A   Overcast
2:54 AM 32.0 °F - 25.0 °F 75% 29.95 in 10.0 mi Calm Calm - N/A   Overcast
3:54 AM 35.1 °F 30.1 °F 25.0 °F 67% 29.94 in 10.0 mi South 5.8 mph - N/A   Overcast
4:54 AM 34.0 °F 28.8 °F 24.1 °F 67% 29.95 in 10.0 mi SSW 5.8 mph - N/A   Clear
5:54 AM 32.0 °F 26.4 °F 24.1 °F 73% 29.95 in 10.0 mi SSW 5.8 mph - N/A   Clear
6:54 AM 30.0 °F 24.1 °F 23.0 °F 75% 29.95 in 9.0 mi SW 5.8 mph - N/A   Clear
7:54 AM 33.1 °F 27.7 °F 25.0 °F 72% 29.96 in 8.0 mi SSW 5.8 mph - N/A   Clear
8:54 AM 36.0 °F 29.6 °F 27.0 °F 70% 29.99 in 9.0 mi SW 8.1 mph - N/A   Clear
9:54 AM 37.9 °F 31.5 °F 28.0 °F 68% 29.98 in 9.0 mi SSW 9.2 mph - N/A   Partly Cloudy
10:54 AM 41.0 °F 36.4 °F 28.9 °F 62% 29.96 in 10.0 mi SSW 6.9 mph - N/A   Clear
11:54 AM 44.1 °F 39.5 °F 28.9 °F 55% 29.94 in 10.0 mi South 8.1 mph - N/A   Clear
12:54 PM 46.9 °F - 28.9 °F 50% 29.91 in 10.0 mi SSW 11.5 mph - N/A   Clear
1:54 PM 48.9 °F - 28.9 °F 46% 29.89 in 10.0 mi SSW 12.7 mph - N/A   Clear
2:54 PM 50.0 °F - 28.9 °F 44% 29.88 in 10.0 mi SSW 12.7 mph - N/A   Clear
3:54 PM 50.0 °F - 28.0 °F 43% 29.88 in 10.0 mi SSW 11.5 mph - N/A   Partly Cloudy
4:54 PM 48.0 °F - 21.9 °F 36% 29.91 in 10.0 mi WNW 10.4 mph - N/A   Mostly Cloudy
5:54 PM 46.0 °F 44.8 °F 21.0 °F 37% 29.92 in 10.0 mi West 3.5 mph - N/A   Overcast
6:54 PM 42.1 °F - 24.1 °F 49% 29.93 in 10.0 mi Calm Calm - N/A   Overcast
7:54 PM 39.0 °F - 26.1 °F 60% 29.92 in 10.0 mi Calm Calm - N/A   Overcast
8:54 PM 42.1 °F 37.7 °F 23.0 °F 47% 29.91 in 10.0 mi NW 6.9 mph - N/A   Overcast
9:54 PM 41.0 °F - 24.1 °F 51% 29.94 in 10.0 mi Calm Calm - N/A   Overcast
10:54 PM 39.0 °F 34.8 °F 28.9 °F 67% 29.96 in 10.0 mi West 5.8 mph - 0.00 in Rain Light Rain
11:01 PM 39.2 °F 34.2 °F 28.4 °F 65% 29.96 in 10.0 mi West 6.9 mph - 0.00 in Rain Light Rain
11:44 PM 35.6 °F 29.9 °F 32.0 °F 87% 29.97 in 7.0 mi North 6.9 mph - 0.03 in Rain Light Rain
11:54 PM 34.0 °F 28.8 °F 30.9 °F 89% 29.98 in 2.0 mi NNE 5.8 mph - 0.04 in Snow Light Snow